Showing default

INTELSAT 515, 19772

Orbit data source: Space-Track

INTELSAT 515, 19772 is a payload satellite owned by INTELSAT (US) in GEO that was launched on Fri, 27 Jan 1989 UTC via an ARIANE 2 launch vehicle from the French Guiana (FRGUI). Payload-class satellites include a variety of spacecraft equipped with specific instruments for various scientific and technological missions. These include communications satellites like Starlink; space stations such as the ISS; scientific satellites like the Hubble; Earth observation satellites from companies like Planet Labs, Umbra, and HawkEye 360; GPS; miniature CubeSats for education and research; and military/defense satellites.

Not visible in the next 10 days
Identifier
19772, 1989-006A
Orbit
GEO
Country
Flag of UnknownUnknown / ITSO
Related business
Manufacturer
Ford Ae
Mission
Non-operational Civil Communications
Bus & Motor
FS INTELSAT 5, STAR 37XF
Mass
1,981 kg wet, 884 kg dry
Launch date (UTC)
1989-01-27 (37 years ago)
Launch vehicle
ARIANE 2
Launch site
French Guiana (FRGUI)
Object type
Payload
Rocket body
Debris
Shape & HBR
Hex Poly + 2 Pan, 8.0 m
Radar Cross Section
18.961 m², Large (>1 m²)

Expand to show TLE details & history
Last TLE update: 18 hours ago

TLE from 18 hours ago
0 INTELSAT 515
1 19772U 89006A   26061.59816028 -.00000255  00000-0  00000+0 0  9995
2 19772  14.9129 354.9928 0017556 114.6518  73.6796  0.99105816123568
Epoch: 2026-03-02T14:21Z
TLE epoch observation values (Epoch: 2026-03-02T14:21:21.048Z)
Latitude
-2.18743°
Longitude
167.53828°
Altitude
36,095.347 km
Speed
3.064 km/s
True Right ascension
12h 13m 03s
True Declination
-2° 11' 07"
Sunlit
Object was in daylight at epoch
Visualization orbit readout
Latitude
Unknown
Longitude
Unknown
Altitude
Unknown
Speed
Unknown
Apparent Right ascension
Unknown
Apparent Declination
Unknown
Sunlit
N/A
Visualization observer readout
Local Sidereal Time
12:19:16
Azimuth
Unknown
Elevation
Unknown
Doppler factor
Unknown
Orbital elements
Apogee altitude
36,192.224 km
Perigee altitude
36,043.013 km
Semi-major axis
42,495.755 km
Eccentricity
0.00176
Inclination
14.9129°
RAAN
354.9928°
Arg. of periapsis
114.6518°
True anomaly
73.87279°
Mean anomaly
73.6796°
Eccentric anomaly
73.77618°
Mean motion
0.24776 °/min
Orbital period
1,453.04 mins
BSTAR
0
Loading maneuver chart data...
Computing Atmospheric mass density...
Loading historical data...
Loading historical data...
Loading historical data...
Loading historical data...
Loading historical data...
Loading historical data...
Loading historical data...

Documentation

Showing up to 5 results
|